MIDAS 4 DEB, 45468

Orbit data source: Space-Track

MIDAS 4 DEB, 45468 is space debris in LEO originally from a launch on Sat, 21 Oct 1961 UTC launched from the Air Force Western Test Range (AFWTR). Debris objects in space refer to the collection of defunct objects orbiting the Earth. Examples of debris include non-operational satellites, rocket bodies, and fragments generated from explosions, collisions, or faulty payload assembly.

Loading next visibility...
Identifier
45468, 1961-028N
Orbit
LEO
Country
Flag of USUS
Related business
Manufacturer
Unknown
Mission
Spacecraft
Bus & Motor
Unknown
Mass
Unknown
Launch date (UTC)
1961-10-21 (65 years ago)
Launch vehicle
Unknown
Launch site
Air Force Western Test Range (AFWTR)
Object type
Payload
Rocket body
Debris
Shape & HBR
Unknown shape, 1.1 m
Radar Cross Section
Medium (>0.1 m² and <1 m²)

Expand to show TLE details & history
Last TLE update: 2 months ago

TLE from 2 months ago
0 MIDAS 4 DEB
1 45468U 61028N   26178.56922226  .00000010  00000-0  58733-2 0  9991
2 45468  95.8467 236.0685 0321065 218.8621 138.8740  8.68915111305327
Epoch: 2026-06-27T13:39Z
TLE epoch observation values (Epoch: 2026-06-27T13:39:40.803Z)
Latitude
-0.00008°
Longitude
115.467°
Altitude
3,864.304 km
Speed
6.162 km/s
True Right ascension
15h 44m 16s
True Declination
0° 00' 00"
Sunlit
Object was in daylight at epoch
Visualization orbit readout
Latitude
Unknown
Longitude
Unknown
Altitude
Unknown
Speed
Unknown
Apparent Right ascension
Unknown
Apparent Declination
Unknown
Sunlit
N/A
Visualization observer readout
Local Sidereal Time
03:52:31
Azimuth
Unknown
Elevation
Unknown
Doppler factor
Unknown
Orbital elements
Apogee altitude
3,934.795 km
Perigee altitude
3,293.171 km
Semi-major axis
9,992.12 km
Eccentricity
0.03211
Inclination
95.8467°
RAAN
236.0685°
Arg. of periapsis
218.8621°
True anomaly
141.22209°
Mean anomaly
138.874°
Eccentric anomaly
140.0551°
Mean motion
2.17298 °/min
Orbital period
165.67 mins
BSTAR
0.0058733
Loading maneuver chart data...
Computing Atmospheric mass density...
Loading historical data...
Loading historical data...
Loading historical data...
Loading historical data...
Loading historical data...
Loading historical data...
Loading historical data...

Documentation

Showing up to 5 results
|